Starlink 11157

operational
NORAD ID: 60122 Int'l Des: 2024-118 Owner: SPXS Country: US Constellation: starlink
LEOCIRCULAR

Über Starlink 11157

Beschreibung wird geladen...

Live-Position

3D-Globus wird geladen...

Nächste Überflüge

Höhenverlauf

Altitude vs Time

uPlot chart will show altitude changes over time

Zweizeiliger Elementsatz

1 60122U 24118K 26095.35237174 .00046605 00000-0 38713-3 0 9997
2 60122 53.1584 89.6294 0001183 104.2994 255.8155 15.69725024102183
Epoch: 5. Apr. 2026 • Age: 9 hours

Aktueller Status

Höhe 378.8 km
Geschwindigkeit 7.68 km/s
Subsatellitenpunkt -53.03°S, 87°W
Startdatum 24. Juni 2024
Alter 1.7 years
Typ internet

Technische Details

Klassifizierung Payload
Masse 960.00 kg
Trockenmasse 910.00 kg
Gesamtmasse 960.00 kg
Länge 0.30 m
Durchmesser 4.10 m
Spannweite 29.00 m
Form Box + pan
Hersteller SPXS
Bus-Typ Starlink V2MD
Phasenstatus In Orbit
Besitzer/Staat SPXS/US

Große Konstellationen

Loading constellations...